Year,Month,Day,Hour,Minute,Value (Times are PST for temperature in C)
2013,07,19,00,00,15.30
2013,07,19,00,01,15.20
2013,07,19,00,02,15.20
2013,07,19,00,03,15.20
2013,07,19,00,04,15.20
2013,07,19,00,05,15.20
2013,07,19,00,06,15.20
2013,07,19,00,07,15.20
2013,07,19,00,08,15.20
2013,07,19,00,09,15.20
2013,07,19,00,10,15.20
2013,07,19,00,11,15.20
2013,07,19,00,12,15.20
2013,07,19,00,13,15.20
2013,07,19,00,14,15.20
2013,07,19,00,15,15.20
2013,07,19,00,16,15.20
2013,07,19,00,17,15.20
2013,07,19,00,18,15.20
2013,07,19,00,19,15.20
2013,07,19,00,20,15.20
2013,07,19,00,21,15.10
2013,07,19,00,22,15.10
2013,07,19,00,23,15.10
2013,07,19,00,24,15.10
2013,07,19,00,25,15.10
2013,07,19,00,26,15.10
2013,07,19,00,27,15.10
2013,07,19,00,28,15.10
2013,07,19,00,29,15.10
2013,07,19,00,30,15.00
2013,07,19,00,31,15.00
2013,07,19,00,32,15.00
2013,07,19,00,33,15.00
2013,07,19,00,34,15.00
2013,07,19,00,35,15.00
2013,07,19,00,36,15.00
2013,07,19,00,37,15.00
2013,07,19,00,38,15.00
2013,07,19,00,39,14.90
2013,07,19,00,40,14.90
2013,07,19,00,41,14.90
2013,07,19,00,42,14.90
2013,07,19,00,43,14.90
2013,07,19,00,44,14.90
2013,07,19,00,45,14.90
2013,07,19,00,46,14.90
2013,07,19,00,47,14.80
2013,07,19,00,48,14.80
2013,07,19,00,49,14.80
2013,07,19,00,50,14.80
2013,07,19,00,51,14.80
2013,07,19,00,52,14.80
2013,07,19,00,53,14.80
2013,07,19,00,54,14.80
2013,07,19,00,55,14.80
2013,07,19,00,56,14.70
2013,07,19,00,57,14.70
2013,07,19,00,58,14.70
2013,07,19,00,59,14.70
2013,07,19,01,00,14.60
2013,07,19,01,01,14.60
2013,07,19,01,02,14.60
2013,07,19,01,03,14.60
2013,07,19,01,04,14.60
2013,07,19,01,05,14.60
2013,07,19,01,06,14.60
2013,07,19,01,07,14.60
2013,07,19,01,08,14.60
2013,07,19,01,09,14.50
2013,07,19,01,10,14.50
2013,07,19,01,11,14.50
2013,07,19,01,12,14.50
2013,07,19,01,13,14.50
2013,07,19,01,14,14.50
2013,07,19,01,15,14.50
2013,07,19,01,16,14.40
2013,07,19,01,17,14.40
2013,07,19,01,18,14.40
2013,07,19,01,19,14.40
2013,07,19,01,20,14.40
2013,07,19,01,21,14.40
2013,07,19,01,22,14.40
2013,07,19,01,23,14.40
2013,07,19,01,24,14.40
2013,07,19,01,25,14.30
2013,07,19,01,26,14.30
2013,07,19,01,27,14.30
2013,07,19,01,28,14.30
2013,07,19,01,29,14.30
2013,07,19,01,30,14.30
2013,07,19,01,31,14.30
2013,07,19,01,32,14.30
2013,07,19,01,33,14.30
2013,07,19,01,34,14.30
2013,07,19,01,35,14.30
2013,07,19,01,36,14.30
2013,07,19,01,37,14.20
2013,07,19,01,38,14.20
2013,07,19,01,39,14.20
2013,07,19,01,40,14.20
2013,07,19,01,41,14.20
2013,07,19,01,42,14.20
2013,07,19,01,43,14.20
2013,07,19,01,44,14.20
2013,07,19,01,45,14.20
2013,07,19,01,46,14.20
2013,07,19,01,47,14.20
2013,07,19,01,48,14.20
2013,07,19,01,49,14.20
2013,07,19,01,50,14.20
2013,07,19,01,51,14.20
2013,07,19,01,52,14.20
2013,07,19,01,53,14.20
2013,07,19,01,54,14.20
2013,07,19,01,55,14.20
2013,07,19,01,56,14.20
2013,07,19,01,57,14.20
2013,07,19,01,58,14.20
2013,07,19,01,59,14.20
2013,07,19,02,00,14.20
2013,07,19,02,01,14.20
2013,07,19,02,02,14.20
2013,07,19,02,03,14.20
2013,07,19,02,04,14.20
2013,07,19,02,05,14.20
2013,07,19,02,06,14.10
2013,07,19,02,07,14.10
2013,07,19,02,08,14.10
2013,07,19,02,09,14.10
2013,07,19,02,10,14.10
2013,07,19,02,11,14.10
2013,07,19,02,12,14.10
2013,07,19,02,13,14.10
2013,07,19,02,14,14.10
2013,07,19,02,15,14.10
2013,07,19,02,16,14.00
2013,07,19,02,17,14.00
2013,07,19,02,18,14.00
2013,07,19,02,19,14.00
2013,07,19,02,20,14.00
2013,07,19,02,21,14.00
2013,07,19,02,22,14.00
2013,07,19,02,23,14.00
2013,07,19,02,24,14.00
2013,07,19,02,25,13.90
2013,07,19,02,26,13.90
2013,07,19,02,27,13.90
2013,07,19,02,28,13.90
2013,07,19,02,29,13.90
2013,07,19,02,30,13.90
2013,07,19,02,31,13.90
2013,07,19,02,32,13.90
2013,07,19,02,33,13.80
2013,07,19,02,34,13.80
2013,07,19,02,35,13.80
2013,07,19,02,36,13.80
2013,07,19,02,37,13.80
2013,07,19,02,38,13.80
2013,07,19,02,39,13.80
2013,07,19,02,40,13.80
2013,07,19,02,41,13.70
2013,07,19,02,42,13.70
2013,07,19,02,43,13.70
2013,07,19,02,44,13.70
2013,07,19,02,45,13.70
2013,07,19,02,46,13.70
2013,07,19,02,47,13.70
2013,07,19,02,48,13.70
2013,07,19,02,49,13.70
2013,07,19,02,50,13.70
2013,07,19,02,51,13.70
2013,07,19,02,52,13.70
2013,07,19,02,53,13.70
2013,07,19,02,54,13.70
2013,07,19,02,55,13.70
2013,07,19,02,56,13.70
2013,07,19,02,57,13.70
2013,07,19,02,58,13.70
2013,07,19,02,59,13.70
2013,07,19,03,00,13.70
2013,07,19,03,01,13.70
2013,07,19,03,02,13.70
2013,07,19,03,03,13.70
2013,07,19,03,04,13.70
2013,07,19,03,05,13.70
2013,07,19,03,06,13.70
2013,07,19,03,07,13.70
2013,07,19,03,08,13.70
2013,07,19,03,09,13.70
2013,07,19,03,10,13.70
2013,07,19,03,11,13.70
2013,07,19,03,12,13.70
2013,07,19,03,13,13.70
2013,07,19,03,14,13.70
2013,07,19,03,15,13.70
2013,07,19,03,16,13.70
2013,07,19,03,17,13.70
2013,07,19,03,18,13.70
2013,07,19,03,19,13.70
2013,07,19,03,20,13.70
2013,07,19,03,21,13.70
2013,07,19,03,22,13.70
2013,07,19,03,23,13.70
2013,07,19,03,24,13.70
2013,07,19,03,25,13.70
2013,07,19,03,26,13.70
2013,07,19,03,27,13.70
2013,07,19,03,28,13.70
2013,07,19,03,29,13.60
2013,07,19,03,30,13.60
2013,07,19,03,31,13.60
2013,07,19,03,32,13.60
2013,07,19,03,33,13.60
2013,07,19,03,34,13.50
2013,07,19,03,35,13.50
2013,07,19,03,36,13.50
2013,07,19,03,37,13.50
2013,07,19,03,38,13.40
2013,07,19,03,39,13.40
2013,07,19,03,40,13.40
2013,07,19,03,41,13.40
2013,07,19,03,42,13.40
2013,07,19,03,43,13.40
2013,07,19,03,44,13.40
2013,07,19,03,45,13.30
2013,07,19,03,46,13.30
2013,07,19,03,47,13.30
2013,07,19,03,48,13.30
2013,07,19,03,49,13.30
2013,07,19,03,50,13.30
2013,07,19,03,51,13.30
2013,07,19,03,52,13.30
2013,07,19,03,53,13.30
2013,07,19,03,54,13.30
2013,07,19,03,55,13.30
2013,07,19,03,56,13.20
2013,07,19,03,57,13.20
2013,07,19,03,58,13.20
2013,07,19,03,59,13.20
2013,07,19,04,00,13.20
2013,07,19,04,01,13.20
2013,07,19,04,02,13.20
2013,07,19,04,03,13.20
2013,07,19,04,04,13.20
2013,07,19,04,05,13.20
2013,07,19,04,06,13.20
2013,07,19,04,07,13.20
2013,07,19,04,08,13.20
2013,07,19,04,09,13.20
2013,07,19,04,10,13.30
2013,07,19,04,11,13.30
2013,07,19,04,12,13.30
2013,07,19,04,13,13.30
2013,07,19,04,14,13.30
2013,07,19,04,15,13.30
2013,07,19,04,16,13.30
2013,07,19,04,17,13.30
2013,07,19,04,18,13.30
2013,07,19,04,19,13.20
2013,07,19,04,20,13.20
2013,07,19,04,21,13.20
2013,07,19,04,22,13.20
2013,07,19,04,23,13.20
2013,07,19,04,24,13.20
2013,07,19,04,25,13.20
2013,07,19,04,26,13.20
2013,07,19,04,27,13.20
2013,07,19,04,28,13.20
2013,07,19,04,29,13.20
2013,07,19,04,30,13.20
2013,07,19,04,31,13.10
2013,07,19,04,32,13.10
2013,07,19,04,33,13.10
2013,07,19,04,34,13.10
2013,07,19,04,35,13.20
2013,07,19,04,36,13.20
2013,07,19,04,37,13.20
2013,07,19,04,38,13.20
2013,07,19,04,39,13.20
2013,07,19,04,40,13.20
2013,07,19,04,41,13.20
2013,07,19,04,42,13.20
2013,07,19,04,43,13.10
2013,07,19,04,44,13.10
2013,07,19,04,45,13.10
2013,07,19,04,46,13.10
2013,07,19,04,47,13.10
2013,07,19,04,48,13.10
2013,07,19,04,49,13.10
2013,07,19,04,50,13.00
2013,07,19,04,51,13.00
2013,07,19,04,52,13.00
2013,07,19,04,53,13.00
2013,07,19,04,54,12.90
2013,07,19,04,55,12.90
2013,07,19,04,56,12.90
2013,07,19,04,57,12.90
2013,07,19,04,58,12.90
2013,07,19,04,59,12.90
2013,07,19,05,00,12.90
2013,07,19,05,01,12.90
2013,07,19,05,02,12.90
2013,07,19,05,03,12.90
2013,07,19,05,04,12.90
2013,07,19,05,05,12.90
2013,07,19,05,06,12.90
2013,07,19,05,07,13.00
2013,07,19,05,08,13.10
2013,07,19,05,09,13.10
2013,07,19,05,10,13.20
2013,07,19,05,11,13.20
2013,07,19,05,12,13.30
2013,07,19,05,13,13.30
2013,07,19,05,14,13.30
2013,07,19,05,15,13.30
2013,07,19,05,16,13.40
2013,07,19,05,17,13.50
2013,07,19,05,18,13.50
2013,07,19,05,19,13.60
2013,07,19,05,20,13.70
2013,07,19,05,21,13.70
2013,07,19,05,22,13.70
2013,07,19,05,23,13.70
2013,07,19,05,24,13.70
2013,07,19,05,25,13.70
2013,07,19,05,26,13.70
2013,07,19,05,27,13.70
2013,07,19,05,28,13.60
2013,07,19,05,29,13.60
2013,07,19,05,30,13.60
2013,07,19,05,31,13.60
2013,07,19,05,32,13.60
2013,07,19,05,33,13.60
2013,07,19,05,34,13.50
2013,07,19,05,35,13.50
2013,07,19,05,36,13.50
2013,07,19,05,37,13.40
2013,07,19,05,38,13.40
2013,07,19,05,39,13.40
2013,07,19,05,40,13.40
2013,07,19,05,41,13.40
2013,07,19,05,42,13.40
2013,07,19,05,43,13.40
2013,07,19,05,44,13.40
2013,07,19,05,45,13.40
2013,07,19,05,46,13.40
2013,07,19,05,47,13.40
2013,07,19,05,48,13.40
2013,07,19,05,49,13.40
2013,07,19,05,50,13.40
2013,07,19,05,51,13.40
2013,07,19,05,52,13.40
2013,07,19,05,53,13.40
2013,07,19,05,54,13.40
2013,07,19,05,55,13.50
2013,07,19,05,56,13.50
2013,07,19,05,57,13.60
2013,07,19,05,58,13.60
2013,07,19,05,59,13.70
2013,07,19,06,00,13.70
2013,07,19,06,01,13.70
2013,07,19,06,02,13.70
2013,07,19,06,03,13.70
2013,07,19,06,04,13.80
2013,07,19,06,05,13.80
2013,07,19,06,06,13.90
2013,07,19,06,07,13.90
2013,07,19,06,08,14.00
2013,07,19,06,09,14.00
2013,07,19,06,10,14.00
2013,07,19,06,11,14.00
2013,07,19,06,12,14.10
2013,07,19,06,13,14.10
2013,07,19,06,14,14.10
2013,07,19,06,15,14.10
2013,07,19,06,16,14.10
2013,07,19,06,17,14.20
2013,07,19,06,18,14.20
2013,07,19,06,19,14.20
2013,07,19,06,20,14.20
2013,07,19,06,21,14.20
2013,07,19,06,22,14.20
2013,07,19,06,23,14.20
2013,07,19,06,24,14.30
2013,07,19,06,25,14.30
2013,07,19,06,26,14.30
2013,07,19,06,27,14.40
2013,07,19,06,28,14.40
2013,07,19,06,29,14.50
2013,07,19,06,30,14.50
2013,07,19,06,31,14.50
2013,07,19,06,32,14.50
2013,07,19,06,33,14.60
2013,07,19,06,34,14.60
2013,07,19,06,35,14.60
2013,07,19,06,36,14.60
2013,07,19,06,37,14.70
2013,07,19,06,38,14.70
2013,07,19,06,39,14.70
2013,07,19,06,40,14.80
2013,07,19,06,41,14.70
2013,07,19,06,42,14.70
2013,07,19,06,43,14.60
2013,07,19,06,44,14.60
2013,07,19,06,45,14.60
2013,07,19,06,46,14.50
2013,07,19,06,47,14.50
2013,07,19,06,48,14.40
2013,07,19,06,49,14.40
2013,07,19,06,50,14.40
2013,07,19,06,51,14.30
2013,07,19,06,52,14.30
2013,07,19,06,53,14.20
2013,07,19,06,54,14.20
2013,07,19,06,55,14.20
2013,07,19,06,56,14.20
2013,07,19,06,57,14.20
2013,07,19,06,58,14.20
2013,07,19,06,59,14.30
2013,07,19,07,00,14.30
2013,07,19,07,01,14.30
2013,07,19,07,02,14.30
2013,07,19,07,03,14.30
2013,07,19,07,04,14.40
2013,07,19,07,05,14.40
2013,07,19,07,06,14.50
2013,07,19,07,07,14.60
2013,07,19,07,08,14.60
2013,07,19,07,09,14.70
2013,07,19,07,10,14.70
2013,07,19,07,11,14.80
2013,07,19,07,12,14.80
2013,07,19,07,13,14.90
2013,07,19,07,14,15.00
2013,07,19,07,15,15.10
2013,07,19,07,16,15.20
2013,07,19,07,17,15.30
2013,07,19,07,18,15.30
2013,07,19,07,19,15.30
2013,07,19,07,20,15.30
2013,07,19,07,21,15.30
2013,07,19,07,22,15.30
2013,07,19,07,23,15.30
2013,07,19,07,24,15.30
2013,07,19,07,25,15.30
2013,07,19,07,26,15.30
2013,07,19,07,27,15.30
2013,07,19,07,28,15.40
2013,07,19,07,29,15.40
2013,07,19,07,30,15.40
2013,07,19,07,31,15.50
2013,07,19,07,32,15.50
2013,07,19,07,33,15.60
2013,07,19,07,34,15.70
2013,07,19,07,35,15.70
2013,07,19,07,36,15.80
2013,07,19,07,37,15.80
2013,07,19,07,38,15.90
2013,07,19,07,39,15.90
2013,07,19,07,40,16.10
2013,07,19,07,41,16.10
2013,07,19,07,42,16.10
2013,07,19,07,43,16.10
2013,07,19,07,44,16.10
2013,07,19,07,45,16.10
2013,07,19,07,46,16.10
2013,07,19,07,47,16.10
2013,07,19,07,48,16.20
2013,07,19,07,49,16.20
2013,07,19,07,50,16.20
2013,07,19,07,51,16.30
2013,07,19,07,52,16.40
2013,07,19,07,53,16.40
2013,07,19,07,54,16.40
2013,07,19,07,55,16.50
2013,07,19,07,56,16.60
2013,07,19,07,57,16.60
2013,07,19,07,58,16.70
2013,07,19,07,59,16.70
2013,07,19,08,00,16.70
2013,07,19,08,01,16.70
2013,07,19,08,02,16.70
2013,07,19,08,03,16.70
2013,07,19,08,04,16.80
2013,07,19,08,05,16.80
2013,07,19,08,06,16.80
2013,07,19,08,07,16.80
2013,07,19,08,08,16.90
2013,07,19,08,09,16.90
2013,07,19,08,10,17.00
2013,07,19,08,11,17.10
2013,07,19,08,12,17.10
2013,07,19,08,13,17.20
2013,07,19,08,14,17.20
2013,07,19,08,15,17.20
2013,07,19,08,16,17.20
2013,07,19,08,17,17.30
2013,07,19,08,18,17.30
2013,07,19,08,19,17.30
2013,07,19,08,20,17.20
2013,07,19,08,21,17.20
2013,07,19,08,22,17.20
2013,07,19,08,23,17.20
2013,07,19,08,24,17.20
2013,07,19,08,25,17.20
2013,07,19,08,26,17.30
2013,07,19,08,27,17.20
2013,07,19,08,28,17.20
2013,07,19,08,29,17.20
2013,07,19,08,30,17.20
2013,07,19,08,31,17.30
2013,07,19,08,32,17.20
2013,07,19,08,33,17.20
2013,07,19,08,34,17.20
2013,07,19,08,35,17.20
2013,07,19,08,36,17.30
2013,07,19,08,37,17.30
2013,07,19,08,38,17.30
2013,07,19,08,39,17.30
2013,07,19,08,40,17.40
2013,07,19,08,41,17.50
2013,07,19,08,42,17.60
2013,07,19,08,43,17.70
2013,07,19,08,44,17.80
2013,07,19,08,45,17.80
2013,07,19,08,46,17.90
2013,07,19,08,47,17.90
2013,07,19,08,48,17.90
2013,07,19,08,49,18.00
2013,07,19,08,50,18.10
2013,07,19,08,51,18.20
2013,07,19,08,52,18.20
2013,07,19,08,53,18.30
2013,07,19,08,54,18.30
2013,07,19,08,55,18.40
2013,07,19,08,56,18.50
2013,07,19,08,57,18.50
2013,07,19,08,58,18.50
2013,07,19,08,59,18.40
2013,07,19,09,00,18.50
2013,07,19,09,01,18.50
2013,07,19,09,02,18.50
2013,07,19,09,03,18.60
2013,07,19,09,04,18.60
2013,07,19,09,05,18.60
2013,07,19,09,06,18.70
2013,07,19,09,07,18.70
2013,07,19,09,08,18.80
2013,07,19,09,09,18.90
2013,07,19,09,10,18.90
2013,07,19,09,11,18.90
2013,07,19,09,12,19.00
2013,07,19,09,13,19.10
2013,07,19,09,14,19.10
2013,07,19,09,15,19.10
2013,07,19,09,16,19.10
2013,07,19,09,17,19.10
2013,07,19,09,18,19.10
2013,07,19,09,19,19.10
2013,07,19,09,20,19.20
2013,07,19,09,21,19.20
2013,07,19,09,22,19.30
2013,07,19,09,23,19.30
2013,07,19,09,24,19.30
2013,07,19,09,25,19.30
2013,07,19,09,26,19.30
2013,07,19,09,27,19.30
2013,07,19,09,28,19.30
2013,07,19,09,29,19.30
2013,07,19,09,30,19.20
2013,07,19,09,31,19.20
2013,07,19,09,32,19.10
2013,07,19,09,33,19.20
2013,07,19,09,34,19.20
2013,07,19,09,35,19.20
2013,07,19,09,36,19.20
2013,07,19,09,37,19.20
2013,07,19,09,38,19.10
2013,07,19,09,39,19.10
2013,07,19,09,40,19.10
2013,07,19,09,41,19.20
2013,07,19,09,42,19.20
2013,07,19,09,43,19.20
2013,07,19,09,44,19.20
2013,07,19,09,45,19.10
2013,07,19,09,46,19.10
2013,07,19,09,47,19.10
2013,07,19,09,48,19.20
2013,07,19,09,49,19.30
2013,07,19,09,50,19.30
2013,07,19,09,51,19.40
2013,07,19,09,52,19.40
2013,07,19,09,53,19.40
2013,07,19,09,54,19.40
2013,07,19,09,55,19.50
2013,07,19,09,56,19.50
2013,07,19,09,57,19.50
2013,07,19,09,58,19.70
2013,07,19,09,59,19.80
2013,07,19,10,00,19.80
2013,07,19,10,01,19.90
2013,07,19,10,02,20.00
2013,07,19,10,03,20.10
2013,07,19,10,04,20.20
2013,07,19,10,05,20.20
2013,07,19,10,06,20.20
2013,07,19,10,07,20.20
2013,07,19,10,08,20.30
2013,07,19,10,09,20.40
2013,07,19,10,10,20.50
2013,07,19,10,11,20.50
2013,07,19,10,12,20.50
2013,07,19,10,13,20.40
2013,07,19,10,14,20.30
2013,07,19,10,15,20.30
2013,07,19,10,16,20.30
2013,07,19,10,17,20.40
2013,07,19,10,18,20.50
2013,07,19,10,19,20.50
2013,07,19,10,20,20.60
2013,07,19,10,21,20.60
2013,07,19,10,22,20.70
2013,07,19,10,23,20.80
2013,07,19,10,24,20.80
2013,07,19,10,25,20.80
2013,07,19,10,26,20.80
2013,07,19,10,27,20.90
2013,07,19,10,28,21.00
2013,07,19,10,29,21.00
2013,07,19,10,30,21.10
2013,07,19,10,31,21.10
2013,07,19,10,32,21.20
2013,07,19,10,33,21.30
2013,07,19,10,34,21.30
2013,07,19,10,35,21.30
2013,07,19,10,36,21.30
2013,07,19,10,37,21.30
2013,07,19,10,38,21.30
2013,07,19,10,39,21.30
2013,07,19,10,40,21.40
2013,07,19,10,41,21.50
2013,07,19,10,42,21.60
2013,07,19,10,43,21.60
2013,07,19,10,44,21.70
2013,07,19,10,45,21.70
2013,07,19,10,46,21.70
2013,07,19,10,47,21.60
2013,07,19,10,48,21.60
2013,07,19,10,49,21.50
2013,07,19,10,50,21.40
2013,07,19,10,51,21.40
2013,07,19,10,52,21.30
2013,07,19,10,53,21.00
2013,07,19,10,54,21.00
2013,07,19,10,55,21.00
2013,07,19,10,56,21.10
2013,07,19,10,57,21.20
2013,07,19,10,58,21.20
2013,07,19,10,59,21.20
2013,07,19,11,00,21.20
2013,07,19,11,01,21.20
2013,07,19,11,02,21.20
2013,07,19,11,03,21.20
2013,07,19,11,04,21.30
2013,07,19,11,05,21.30
2013,07,19,11,06,21.40
2013,07,19,11,07,21.50
2013,07,19,11,08,21.60
2013,07,19,11,09,21.60
2013,07,19,11,10,21.70
2013,07,19,11,11,21.70
2013,07,19,11,12,21.80
2013,07,19,11,13,21.80
2013,07,19,11,14,21.80
2013,07,19,11,15,21.90
2013,07,19,11,16,21.90
2013,07,19,11,17,21.80
2013,07,19,11,18,21.80
2013,07,19,11,19,21.90
2013,07,19,11,20,21.90
2013,07,19,11,21,21.90
2013,07,19,11,22,21.90
2013,07,19,11,23,21.90
2013,07,19,11,24,22.00
2013,07,19,11,25,22.00
2013,07,19,11,26,22.10
2013,07,19,11,27,22.10
2013,07,19,11,28,22.10
2013,07,19,11,29,22.00
2013,07,19,11,30,22.00
2013,07,19,11,31,22.00
2013,07,19,11,32,22.10
2013,07,19,11,33,22.10
2013,07,19,11,34,22.10
2013,07,19,11,35,22.10
2013,07,19,11,36,22.10
2013,07,19,11,37,22.10
2013,07,19,11,38,22.20
2013,07,19,11,39,22.30
2013,07,19,11,40,22.30
2013,07,19,11,41,22.20
2013,07,19,11,42,22.10
2013,07,19,11,43,21.90
2013,07,19,11,44,21.70
2013,07,19,11,45,21.50
2013,07,19,11,46,21.20
2013,07,19,11,47,21.10
2013,07,19,11,48,21.10
2013,07,19,11,49,21.10
2013,07,19,11,50,21.20
2013,07,19,11,51,21.20
2013,07,19,11,52,21.20
2013,07,19,11,53,21.20
2013,07,19,11,54,21.20
2013,07,19,11,55,21.30
2013,07,19,11,56,21.30
2013,07,19,11,57,21.30
2013,07,19,11,58,21.40
2013,07,19,11,59,21.40
2013,07,19,12,00,21.40
2013,07,19,12,01,21.30
2013,07,19,12,02,21.30
2013,07,19,12,03,21.40
2013,07,19,12,04,21.60
2013,07,19,12,05,21.70
2013,07,19,12,06,21.80
2013,07,19,12,07,21.90
2013,07,19,12,08,21.90
2013,07,19,12,09,21.80
2013,07,19,12,10,21.70
2013,07,19,12,11,21.80
2013,07,19,12,12,21.80
2013,07,19,12,13,21.80
2013,07,19,12,14,21.80
2013,07,19,12,15,21.80
2013,07,19,12,16,21.70
2013,07,19,12,17,21.60
2013,07,19,12,18,21.60
2013,07,19,12,19,21.60
2013,07,19,12,20,21.60
2013,07,19,12,21,21.60
2013,07,19,12,22,21.60
2013,07,19,12,23,21.60
2013,07,19,12,24,21.60
2013,07,19,12,25,21.70
2013,07,19,12,26,21.80
2013,07,19,12,27,21.80
2013,07,19,12,28,21.90
2013,07,19,12,29,21.90
2013,07,19,12,30,21.80
2013,07,19,12,31,21.70
2013,07,19,12,32,21.60
2013,07,19,12,33,21.40
2013,07,19,12,34,21.20
2013,07,19,12,35,21.10
2013,07,19,12,36,21.00
2013,07,19,12,37,21.00
2013,07,19,12,38,21.10
2013,07,19,12,39,21.20
2013,07,19,12,40,21.30
2013,07,19,12,41,21.40
2013,07,19,12,42,21.60
2013,07,19,12,43,21.60
2013,07,19,12,44,21.50
2013,07,19,12,45,21.50
2013,07,19,12,46,21.60
2013,07,19,12,47,21.60
2013,07,19,12,48,21.60
2013,07,19,12,49,21.60
2013,07,19,12,50,21.60
2013,07,19,12,51,21.50
2013,07,19,12,52,21.50
2013,07,19,12,53,21.50
2013,07,19,12,54,21.60
2013,07,19,12,55,21.60
2013,07,19,12,56,21.60
2013,07,19,12,57,21.50
2013,07,19,12,58,21.40
2013,07,19,12,59,21.50
2013,07,19,13,00,21.60
2013,07,19,13,01,21.60
2013,07,19,13,02,21.70
2013,07,19,13,03,21.80
2013,07,19,13,04,22.00
2013,07,19,13,05,22.10
2013,07,19,13,06,22.30
2013,07,19,13,07,22.30
2013,07,19,13,08,22.30
2013,07,19,13,09,22.30
2013,07,19,13,10,22.40
2013,07,19,13,11,22.50
2013,07,19,13,12,22.60
2013,07,19,13,13,22.60
2013,07,19,13,14,22.60
2013,07,19,13,15,22.70
2013,07,19,13,16,22.70
2013,07,19,13,17,22.60
2013,07,19,13,18,22.50
2013,07,19,13,19,22.40
2013,07,19,13,20,22.40
2013,07,19,13,21,22.50
2013,07,19,13,22,22.40
2013,07,19,13,23,22.50
2013,07,19,13,24,22.50
2013,07,19,13,25,22.50
2013,07,19,13,26,22.60
2013,07,19,13,27,22.60
2013,07,19,13,28,22.70
2013,07,19,13,29,22.70
2013,07,19,13,30,22.70
2013,07,19,13,31,22.80
2013,07,19,13,32,22.90
2013,07,19,13,33,23.00
2013,07,19,13,34,23.20
2013,07,19,13,35,23.30
2013,07,19,13,36,23.30
2013,07,19,13,37,23.30
2013,07,19,13,38,23.40
2013,07,19,13,39,23.40
2013,07,19,13,40,23.50
2013,07,19,13,41,23.40
2013,07,19,13,42,23.20
2013,07,19,13,43,23.10
2013,07,19,13,44,23.10
2013,07,19,13,45,23.10
2013,07,19,13,46,23.10
2013,07,19,13,47,23.20
2013,07,19,13,48,23.20
2013,07,19,13,49,23.20
2013,07,19,13,50,23.20
2013,07,19,13,51,23.30
2013,07,19,13,52,23.30
2013,07,19,13,53,23.10
2013,07,19,13,54,23.20
2013,07,19,13,55,23.30
2013,07,19,13,56,23.30
2013,07,19,13,57,23.40
2013,07,19,13,58,23.40
2013,07,19,13,59,23.60
2013,07,19,14,00,23.70
2013,07,19,14,01,23.70
2013,07,19,14,02,23.70
2013,07,19,14,03,23.70
2013,07,19,14,04,23.80
2013,07,19,14,05,23.80
2013,07,19,14,06,23.70
2013,07,19,14,07,23.70
2013,07,19,14,08,23.70
2013,07,19,14,09,23.70
2013,07,19,14,10,23.50
2013,07,19,14,11,23.40
2013,07,19,14,12,23.40
2013,07,19,14,13,23.50
2013,07,19,14,14,23.70
2013,07,19,14,15,23.80
2013,07,19,14,16,23.90
2013,07,19,14,17,24.10
2013,07,19,14,18,24.20
2013,07,19,14,19,24.20
2013,07,19,14,20,24.10
2013,07,19,14,21,24.10
2013,07,19,14,22,24.00
2013,07,19,14,23,23.90
2013,07,19,14,24,23.70
2013,07,19,14,25,23.70
2013,07,19,14,26,23.70
2013,07,19,14,27,23.80
2013,07,19,14,28,23.90
2013,07,19,14,29,24.00
2013,07,19,14,30,24.10
2013,07,19,14,31,24.10
2013,07,19,14,32,24.20
2013,07,19,14,33,24.30
2013,07,19,14,34,24.20
2013,07,19,14,35,24.10
2013,07,19,14,36,24.10
2013,07,19,14,37,24.10
2013,07,19,14,38,24.10
2013,07,19,14,39,24.10
2013,07,19,14,40,24.20
2013,07,19,14,41,24.30
2013,07,19,14,42,24.30
2013,07,19,14,43,24.30
2013,07,19,14,44,24.50
2013,07,19,14,45,24.60
2013,07,19,14,46,24.70
2013,07,19,14,47,24.70
2013,07,19,14,48,24.50
2013,07,19,14,49,24.40
2013,07,19,14,50,24.30
2013,07,19,14,51,24.20
2013,07,19,14,52,24.20
2013,07,19,14,53,24.30
2013,07,19,14,54,24.20
2013,07,19,14,55,24.10
2013,07,19,14,56,24.10
2013,07,19,14,57,24.20
2013,07,19,14,58,24.20
2013,07,19,14,59,24.40
2013,07,19,15,00,24.40
2013,07,19,15,01,24.40
2013,07,19,15,02,24.40
2013,07,19,15,03,24.40
2013,07,19,15,04,24.40
2013,07,19,15,05,24.40
2013,07,19,15,06,24.40
2013,07,19,15,07,24.20
2013,07,19,15,08,24.10
2013,07,19,15,09,24.10
2013,07,19,15,10,24.10
2013,07,19,15,11,24.10
2013,07,19,15,12,24.30
2013,07,19,15,13,24.40
2013,07,19,15,14,24.60
2013,07,19,15,15,24.80
2013,07,19,15,16,24.80
2013,07,19,15,17,24.90
2013,07,19,15,18,24.90
2013,07,19,15,19,24.90
2013,07,19,15,20,24.90
2013,07,19,15,21,24.80
2013,07,19,15,22,24.80
2013,07,19,15,23,24.70
2013,07,19,15,24,24.70
2013,07,19,15,25,24.70
2013,07,19,15,26,24.70
2013,07,19,15,27,24.70
2013,07,19,15,28,24.80
2013,07,19,15,29,24.90
2013,07,19,15,30,25.00
2013,07,19,15,31,25.00
2013,07,19,15,32,25.10
2013,07,19,15,33,25.10
2013,07,19,15,34,25.20
2013,07,19,15,35,25.20
2013,07,19,15,36,25.10
2013,07,19,15,37,25.10
2013,07,19,15,38,25.10
2013,07,19,15,39,25.10
2013,07,19,15,40,25.10
2013,07,19,15,41,25.00
2013,07,19,15,42,25.00
2013,07,19,15,43,25.00
2013,07,19,15,44,25.00
2013,07,19,15,45,25.00
2013,07,19,15,46,25.10
2013,07,19,15,47,25.10
2013,07,19,15,48,25.10
2013,07,19,15,49,25.10
2013,07,19,15,50,25.10
2013,07,19,15,51,25.10
2013,07,19,15,52,25.20
2013,07,19,15,53,25.20
2013,07,19,15,54,25.20
2013,07,19,15,55,25.20
2013,07,19,15,56,25.20
2013,07,19,15,57,25.10
2013,07,19,15,58,25.00
2013,07,19,15,59,24.80
2013,07,19,16,00,24.70
2013,07,19,16,01,24.70
2013,07,19,16,02,24.70
2013,07,19,16,03,24.70
2013,07,19,16,04,24.80
2013,07,19,16,05,24.80
2013,07,19,16,06,24.80
2013,07,19,16,07,24.90
2013,07,19,16,08,24.90
2013,07,19,16,09,25.10
2013,07,19,16,10,25.30
2013,07,19,16,11,25.40
2013,07,19,16,12,25.40
2013,07,19,16,13,25.50
2013,07,19,16,14,25.50
2013,07,19,16,15,25.60
2013,07,19,16,16,25.70
2013,07,19,16,17,25.60
2013,07,19,16,18,25.60
2013,07,19,16,19,25.50
2013,07,19,16,20,25.50
2013,07,19,16,21,25.40
2013,07,19,16,22,25.30
2013,07,19,16,23,25.10
2013,07,19,16,24,24.90
2013,07,19,16,25,24.80
2013,07,19,16,26,24.80
2013,07,19,16,27,24.90
2013,07,19,16,28,24.90
2013,07,19,16,29,25.00
2013,07,19,16,30,25.00
2013,07,19,16,31,24.90
2013,07,19,16,32,25.00
2013,07,19,16,33,25.00
2013,07,19,16,34,24.90
2013,07,19,16,35,24.90
2013,07,19,16,36,24.90
2013,07,19,16,37,24.80
2013,07,19,16,38,24.70
2013,07,19,16,39,24.70
2013,07,19,16,40,24.70
2013,07,19,16,41,24.80
2013,07,19,16,42,24.70
2013,07,19,16,43,24.70
2013,07,19,16,44,24.70
2013,07,19,16,45,24.70
2013,07,19,16,46,24.80
2013,07,19,16,47,24.90
2013,07,19,16,48,24.90
2013,07,19,16,49,24.90
2013,07,19,16,50,25.00
2013,07,19,16,51,25.00
2013,07,19,16,52,24.90
2013,07,19,16,53,24.90
2013,07,19,16,54,25.00
2013,07,19,16,55,24.90
2013,07,19,16,56,24.80
2013,07,19,16,57,24.70
2013,07,19,16,58,24.60
2013,07,19,16,59,24.50
2013,07,19,17,00,24.60
2013,07,19,17,01,24.60
2013,07,19,17,02,24.60
2013,07,19,17,03,24.70
2013,07,19,17,04,24.70
2013,07,19,17,05,24.70
2013,07,19,17,06,24.50
2013,07,19,17,07,24.40
2013,07,19,17,08,24.30
2013,07,19,17,09,24.20
2013,07,19,17,10,24.10
2013,07,19,17,11,24.10
2013,07,19,17,12,24.10
2013,07,19,17,13,24.00
2013,07,19,17,14,23.90
2013,07,19,17,15,23.90
2013,07,19,17,16,23.80
2013,07,19,17,17,23.90
2013,07,19,17,18,23.90
2013,07,19,17,19,24.10